This is the latest recevied weather packets stored in our database for station/object KB3FCJ-2. If no packets are shown the sender has not sent any weather packets the latest 10 day(s).
| Time | Temp. | Humidity | Pressure | Rain* | Wind** | Luminosity | Snow |
|---|---|---|---|---|---|---|---|
| 1777648066 | 12.78° C | 53% | 702.3 hPa | 0 mm | - | - | - |
| 1777647466 | 12.78° C | 55% | 702.3 hPa | 0 mm | - | - | - |
| 1777646624 | 11.67° C | 53% | 702.3 hPa | 0 mm | - | - | - |
| 1777646023 | 11.67° C | 56% | 702.3 hPa | 0 mm | - | - | - |
| 1777645423 | 11.67° C | 57% | 702.3 hPa | 0 mm | - | - | - |
| 1777644824 | 11.67° C | 57% | 702.3 hPa | 0 mm | - | - | - |
| 1777643978 | 11.11° C | 60% | 702.3 hPa | 0 mm | - | - | - |
| 1777643378 | 11.11° C | 62% | 702.3 hPa | 0 mm | - | - | - |
| 1777642778 | 10.56° C | 65% | 702.3 hPa | 0 mm | - | - | - |
| 1777642178 | 11.11° C | 66% | 702.3 hPa | 0 mm | - | - | - |
| 1777641338 | 10.56° C | 65% | 702.3 hPa | 0 mm | - | - | - |
| 1777640738 | 10° C | 70% | 702.3 hPa | 0 mm | - | - | - |
| 1777640137 | 9.44° C | 71% | 836.8 hPa | 0 mm | - | - | - |
| 1777639538 | 9.44° C | 72% | 836.8 hPa | 0 mm | - | - | - |
| 1777638696 | 8.89° C | 73% | 836.8 hPa | 0 mm | - | - | - |
| 1777638097 | 8.89° C | 74% | 836.8 hPa | 0 mm | - | - | - |
| 1777637496 | 8.33° C | 76% | 836.8 hPa | 0 mm | - | - | - |
| 1777636896 | 8.33° C | 78% | 836.8 hPa | 0 mm | - | - | - |
| 1777636079 | 7.22° C | 81% | 836.8 hPa | 0 mm | - | - | - |
| 1777635480 | 7.22° C | 83% | 836.8 hPa | 0 mm | - | - | - |
| 1777634880 | 6.67° C | 85% | 836.8 hPa | 0 mm | - | - | - |
| 1777634279 | 6.11° C | 85% | 836.8 hPa | 0 mm | - | - | - |
| 1777633437 | 5.56° C | 86% | 836.8 hPa | 0 mm | - | - | - |
| 1777632837 | 5.56° C | 86% | 836.8 hPa | 0 mm | - | - | - |
| 1777632236 | 5° C | 86% | 836.8 hPa | 0 mm | - | - | - |
* Rain latest hour (hover to see other rain measurements)
** Current wind speed in m/s (hover to see current wind gust speed)